COSMOS 2559 [707K]

Last updated on Sun Nov 20 2022 00:03:17 GMT+0000 (Coordinated Universal Time)

1 54031U 22130A 22322.62677698 -.00000044 00000+0 00000+0 0 9990 2 54031 64.7792 0.2932 0007689 228.6374 131.3634 2.13101452 840
UTC large
Height (km)
Speed (km/s)
/
Latitude / Longitude
Inclination (degrees)
Orbital Period (minutes)
Azimuth
Elevation
Range (km)
Doppler Factor

Next 0 passes for location: London (51.5072 / 0.1276)

Sorry there are no passes over London.